Location: Helion Bumpstead
(52.0500°N, 0.4000°E)
Time: 21:57:22
(UTC+00:00)

Gbstr 26 Del rocket - Pass Details

Date: 15 November 2025
Orbit: 489 x 1220 km, 51.8° (Epoch: 06 December)

Event Time Altitude Azimuth Distance (km) Brightness Sun altitude
Exits shadow 04:21:44 83° 117° (ESE) 755 3.4 -26.9°
Drops below altitude 10° 04:27:24 10° 86° (E) 2,519 7.2 -26.1°
Sets 04:30:13 0° 86° (E) 3,586 8.3 -25.6°
